Location: Observatory
(52.1446°N, 0.4624°W)
Time: 04:46:15
(UTC+01:00)

ISS - Pass Details

Date: 25 July 2021
Orbit: 419 x 421 km, 51.6° (Epoch: 03 August)

Event Time Altitude Azimuth Distance (km) Brightness Sun altitude
Rises 22:04:12 0° 279° (W) 2,374 1.0 -8.0°
Reaches altitude 10° 22:06:19 10° 276° (W) 1,508 -0.1 -8.2°
Maximum altitude 22:09:40 62° 196° (SSW) 479 -3.6 -8.5°
Enters shadow 22:12:53 11° 115° (ESE) 1,456 -1.6 -8.9°
